Time,TemperatureF,DewpointF,PressureIn,WindDirection,WindDirectionDegrees,WindSpeedMPH,WindSpeedGustMPH,Humidity,HourlyPrecipIn,Conditions,Clouds,dailyrainin,SoftwareType,DateUTC
2013-11-07 00:23:00,53.0,47.0,-100.00,South,188,5.0,12.0,80,0.00,,,-99.99,,2013-11-07 05:23:00,
2013-11-07 01:32:00,-999.0,-99.9,-100.00,South,188,6.0,12.0,-999,-99.99,,,-99.99,,2013-11-07 06:32:00,
2013-11-07 01:42:00,-999.0,-99.9,-100.00,SSW,193,6.0,12.0,-999,-99.99,,,-99.99,,2013-11-07 06:42:00,
2013-11-07 02:22:00,54.0,47.0,-100.00,SSW,199,6.0,13.0,79,0.00,,,-99.99,,2013-11-07 07:22:00,
2013-11-07 02:32:00,-999.0,-99.9,-100.00,SSW,198,6.0,12.0,-999,-99.99,,,-99.99,,2013-11-07 07:32:00,
2013-11-07 02:42:00,-999.0,-99.9,-100.00,SSW,205,6.0,12.0,-999,-99.99,,,-99.99,,2013-11-07 07:42:00,
2013-11-07 05:13:00,-999.0,-99.9,-100.00,SW,220,4.0,11.0,-999,-99.99,,,-99.99,,2013-11-07 10:13:00,
2013-11-07 05:23:00,-999.0,-99.9,-100.00,SSW,196,5.0,11.0,-999,-99.99,,,-99.99,,2013-11-07 10:23:00,
2013-11-07 06:52:00,56.0,53.0,-100.00,SSW,210,1.0,4.0,89,0.00,,,-99.99,,2013-11-07 11:52:00,
2013-11-07 09:22:00,62.0,56.0,-100.00,South,175,4.0,8.0,81,0.00,,,-99.99,,2013-11-07 14:22:00,
2013-11-07 09:32:00,-999.0,-99.9,-100.00,South,174,4.0,10.0,-999,-99.99,,,-99.99,,2013-11-07 14:32:00,
2013-11-07 09:42:00,-999.0,-99.9,-100.00,South,182,4.0,9.0,-999,-99.99,,,-99.99,,2013-11-07 14:42:00,
2013-11-07 11:04:00,-999.0,-99.9,-100.00,SSW,213,2.0,6.0,-999,-99.99,,,-99.99,,2013-11-07 16:04:00,
2013-11-07 11:23:00,-999.0,-99.9,-100.00,SW,229,2.0,7.0,-999,-99.99,,,-99.99,,2013-11-07 16:23:00,
2013-11-07 12:22:00,62.0,54.0,-100.00,SW,223,2.0,8.0,74,0.00,,,-99.99,,2013-11-07 17:22:00,
2013-11-07 13:12:00,-999.0,-99.9,-100.00,West,264,2.0,7.0,-999,-99.99,,,-99.99,,2013-11-07 18:12:00,
2013-11-07 13:23:00,59.0,56.0,-100.00,WSW,250,2.0,8.0,88,0.01,,,-99.99,,2013-11-07 18:23:00,
2013-11-07 15:01:00,-999.0,-99.9,-100.00,West,272,4.0,10.0,-999,-99.99,,,-99.99,,2013-11-07 20:01:00,
2013-11-07 15:52:00,-999.0,-99.9,-100.00,WSW,258,3.0,8.0,-999,-99.99,,,-99.99,,2013-11-07 20:52:00,
2013-11-07 16:02:00,-999.0,-99.9,-100.00,WSW,250,3.0,7.0,-999,-99.99,,,-99.99,,2013-11-07 21:02:00,
2013-11-07 17:23:00,52.0,47.0,-100.00,WNW,289,3.0,6.0,84,0.00,,,-99.99,,2013-11-07 22:23:00,
2013-11-07 17:53:00,52.0,46.0,-100.00,WNW,298,6.0,9.0,80,0.00,,,-99.99,,2013-11-07 22:53:00,
2013-11-07 20:12:00,-999.0,-99.9,-100.00,NW,313,12.0,18.0,-999,-99.99,,,-99.99,,2013-11-08 01:12:00,
2013-11-07 20:52:00,45.0,34.0,-100.00,NW,305,10.0,15.0,63,0.00,,,-99.99,,2013-11-08 01:52:00,
2013-11-07 21:12:00,-999.0,-99.9,-100.00,NW,309,9.0,12.0,-999,-99.99,,,-99.99,,2013-11-08 02:12:00,
2013-11-07 21:22:00,-999.0,-99.9,-100.00,NW,312,10.0,14.0,-999,-99.99,,,-99.99,,2013-11-08 02:22:00,